Tracking 31027 objects as of 19-Jul-2025
HD Live streaming from Space Station
objects crossing your sky now

BPA 3/SL-24 R/B

Track BPA 3/SL-24 R/B now!
10-day predictions


NORAD ID: 39448
Int'l Code: 2013-066AJ
Perigee: 598.0 km
Apogee: 1,611.4 km
Inclination: 97.7 °
Period: 107.2 minutes
Semi major axis: 7475 km
RCS: Unknown
Launch date: November 21, 2013
Source: Commonwealth of Independent States (former USSR) (CIS)
Launch site: Orenburg, Russia (OREN)

Note: This is a ROCKET BODY
Your satellite tracking list
FENGYUN 1C DEB
Track 1 satellite(s)




NASA's NSSDC Master Catalog

Two Line Element Set (TLE):
1 39448U 13066AJ  25199.58899698  .00000009  00000-0  18224-4 0  9992
2 39448  97.6944  77.2405 0677771 179.8226 180.3282 13.43153695571102
Source of the keplerian elements: AFSPC